NOAA 16 DEB, 41411

Orbit data source: Space-Track

NOAA 16 DEB, 41411 is space debris in SSO originally from a launch on Thu, 21 Sep 2000 UTC launched from the Air Force Western Test Range (AFWTR). Debris objects in space refer to the collection of defunct objects orbiting the Earth. Examples of debris include non-operational satellites, rocket bodies, and fragments generated from explosions, collisions, or faulty payload assembly.

Loading next visibility...
Identifier
41411, 2000-055KQ
Orbit
SSO
Country
Flag of USUS
Related business
Manufacturer
Unknown
Mission
Spacecraft
Bus & Motor
Unknown
Mass
Unknown
Launch date (UTC)
2000-09-21 (25 years ago)
Launch vehicle
Unknown
Launch site
Air Force Western Test Range (AFWTR)
Object type
Payload
Rocket body
Debris
Shape & HBR
Unknown shape, 0.1 m
Radar Cross Section
Small (<0.1 m²)

Expand to show TLE details & history
Last TLE update: 2 days ago

TLE from 2 days ago
0 NOAA 16 DEB
1 41411U 00055KQ  25351.77638943  .00004291  00000-0  14674-2 0  9994
2 41411  98.8307 110.0570 0013878 343.3285  16.7443 14.36783066510664
Epoch: 2025-12-17T18:38Z
TLE epoch observation values (Epoch: 2025-12-17T18:38:00.046Z)
Latitude
0.00003°
Longitude
103.91541°
Altitude
762.581 km
Speed
7.478 km/s
True Right ascension
07h 20m 13s
True Declination
0° 00' 00"
Sunlit
Object was in full shadow at epoch
Visualization orbit readout
Latitude
Unknown
Longitude
Unknown
Altitude
Unknown
Speed
Unknown
Apparent Right ascension
Unknown
Apparent Declination
Unknown
Sunlit
N/A
Visualization observer readout
Local Sidereal Time
09:38:27
Azimuth
Unknown
Elevation
Unknown
Doppler factor
Unknown
Orbital elements
Apogee altitude
776.204 km
Perigee altitude
756.374 km
Semi-major axis
7,144.426 km
Eccentricity
0.00139
Inclination
98.8307°
RAAN
110.057°
Arg. of periapsis
343.3285°
True anomaly
16.79019°
Mean anomaly
16.7443°
Eccentric anomaly
16.76724°
Mean motion
3.59412 °/min
Orbital period
100.16 mins
BSTAR
0.0014674
Loading maneuver chart data...
Computing Atmospheric mass density...
Loading historical data...
Loading historical data...
Loading historical data...
Loading historical data...
Loading historical data...
Loading historical data...
Loading historical data...

Documentation

Showing up to 5 results
|